Year,Month,Day,Hour,Minute,Value (Times are PST for temperature in C)
2009,03,08,00,00,-2.20
2009,03,08,00,01,-2.20
2009,03,08,00,02,-2.20
2009,03,08,00,03,-2.20
2009,03,08,00,04,-2.20
2009,03,08,00,05,-2.20
2009,03,08,00,06,-2.20
2009,03,08,00,07,-2.20
2009,03,08,00,08,-2.20
2009,03,08,00,09,-2.10
2009,03,08,00,10,-2.10
2009,03,08,00,11,-2.10
2009,03,08,00,12,-2.10
2009,03,08,01,02,-2.00
2009,03,08,01,03,-2.00
2009,03,08,01,04,-2.00
2009,03,08,01,05,-2.00
2009,03,08,01,06,-2.00
2009,03,08,01,07,-2.00
2009,03,08,01,08,-2.00
2009,03,08,01,09,-2.00
2009,03,08,01,10,-2.00
2009,03,08,01,11,-2.00
2009,03,08,01,12,-2.00
2009,03,08,01,13,-2.00
2009,03,08,01,14,-2.00
2009,03,08,01,15,-2.10
2009,03,08,01,16,-2.10
2009,03,08,01,17,-2.10
2009,03,08,01,18,-2.10
2009,03,08,01,19,-2.10
2009,03,08,01,20,-2.10
2009,03,08,01,21,-2.20
2009,03,08,01,22,-2.20
2009,03,08,01,23,-2.20
2009,03,08,01,24,-2.20
2009,03,08,01,25,-2.20
2009,03,08,01,26,-2.20
2009,03,08,01,27,-2.20
2009,03,08,01,28,-2.30
2009,03,08,01,29,-2.30
2009,03,08,01,30,-2.30
2009,03,08,01,31,-2.30
2009,03,08,01,32,-2.30
2009,03,08,01,33,-2.30
2009,03,08,01,34,-2.30
2009,03,08,01,35,-2.30
2009,03,08,01,36,-2.30
2009,03,08,01,37,-2.30
2009,03,08,01,38,-2.30
2009,03,08,01,39,-2.30
2009,03,08,01,40,-2.30
2009,03,08,01,41,-2.30
2009,03,08,01,42,-2.30
2009,03,08,01,43,-2.30
2009,03,08,01,44,-2.30
2009,03,08,01,45,-2.30
2009,03,08,01,46,-2.30
2009,03,08,01,47,-2.30
2009,03,08,01,48,-2.30
2009,03,08,01,49,-2.30
2009,03,08,01,50,-2.30
2009,03,08,01,51,-2.30
2009,03,08,01,52,-2.30
2009,03,08,01,53,-2.40
2009,03,08,01,54,-2.40
2009,03,08,01,55,-2.40
2009,03,08,01,56,-2.40
2009,03,08,01,57,-2.40
2009,03,08,01,58,-2.40
2009,03,08,01,59,-2.40
2009,03,08,03,00,-2.40
2009,03,08,03,01,-2.40
2009,03,08,03,02,-2.40
2009,03,08,03,03,-2.40
2009,03,08,03,04,-2.40
2009,03,08,03,05,-2.40
2009,03,08,03,06,-2.40
2009,03,08,03,07,-2.40
2009,03,08,03,08,-2.40
2009,03,08,03,09,-2.40
2009,03,08,03,10,-2.40
2009,03,08,03,11,-2.40
2009,03,08,03,12,-2.40
2009,03,08,03,13,-2.40
2009,03,08,03,14,-2.40
2009,03,08,03,15,-2.40
2009,03,08,03,16,-2.40
2009,03,08,03,17,-2.50
2009,03,08,03,18,-2.50
2009,03,08,03,19,-2.50
2009,03,08,03,20,-2.50
2009,03,08,03,21,-2.50
2009,03,08,03,22,-2.50
2009,03,08,03,23,-2.60
2009,03,08,03,24,-2.60
2009,03,08,03,25,-2.60
2009,03,08,03,26,-2.60
2009,03,08,03,27,-2.60
2009,03,08,03,28,-2.60
2009,03,08,03,29,-2.60
2009,03,08,03,30,-2.60
2009,03,08,03,31,-2.60
2009,03,08,03,32,-2.60
2009,03,08,03,33,-2.60
2009,03,08,03,34,-2.60
2009,03,08,03,35,-2.70
2009,03,08,03,36,-2.70
2009,03,08,03,37,-2.70
2009,03,08,03,38,-2.70
2009,03,08,03,39,-2.70
2009,03,08,03,40,-2.60
2009,03,08,03,41,-2.60
2009,03,08,03,42,-2.60
2009,03,08,03,43,-2.60
2009,03,08,03,44,-2.60
2009,03,08,03,45,-2.60
2009,03,08,03,46,-2.60
2009,03,08,03,47,-2.60
2009,03,08,03,48,-2.60
2009,03,08,03,49,-2.60
2009,03,08,03,50,-2.60
2009,03,08,03,51,-2.60
2009,03,08,03,52,-2.60
2009,03,08,03,53,-2.60
2009,03,08,03,54,-2.60
2009,03,08,03,55,-2.70
2009,03,08,03,56,-2.70
2009,03,08,03,57,-2.70
2009,03,08,03,58,-2.70
2009,03,08,03,59,-2.70
2009,03,08,04,00,-2.70
2009,03,08,04,01,-2.70
2009,03,08,04,02,-2.70
2009,03,08,04,03,-2.70
2009,03,08,04,04,-2.80
2009,03,08,04,05,-2.80
2009,03,08,04,06,-2.80
2009,03,08,04,07,-2.80
2009,03,08,04,08,-2.80
2009,03,08,04,09,-2.80
2009,03,08,04,10,-2.80
2009,03,08,04,11,-2.90
2009,03,08,04,12,-2.90
2009,03,08,04,13,-2.90
2009,03,08,04,14,-2.90
2009,03,08,04,15,-2.80
2009,03,08,04,16,-2.80
2009,03,08,04,17,-2.80
2009,03,08,04,18,-2.80
2009,03,08,04,19,-2.80
2009,03,08,04,20,-2.80
2009,03,08,04,21,-2.80
2009,03,08,04,22,-2.80
2009,03,08,04,23,-2.90
2009,03,08,04,24,-2.90
2009,03,08,04,25,-2.90
2009,03,08,04,26,-2.90
2009,03,08,04,27,-3.00
2009,03,08,04,28,-3.00
2009,03,08,04,29,-3.00
2009,03,08,04,30,-3.00
2009,03,08,04,31,-3.00
2009,03,08,04,32,-3.10
2009,03,08,04,33,-3.10
2009,03,08,04,34,-3.10
2009,03,08,04,35,-3.10
2009,03,08,04,36,-3.10
2009,03,08,04,37,-3.10
2009,03,08,04,38,-3.10
2009,03,08,04,39,-3.10
2009,03,08,04,40,-3.20
2009,03,08,04,41,-3.20
2009,03,08,04,42,-3.20
2009,03,08,04,43,-3.20
2009,03,08,04,44,-3.20
2009,03,08,04,45,-3.20
2009,03,08,04,46,-3.20
2009,03,08,04,47,-3.30
2009,03,08,04,48,-3.30
2009,03,08,04,49,-3.30
2009,03,08,04,50,-3.30
2009,03,08,04,51,-3.30
2009,03,08,04,52,-3.40
2009,03,08,04,53,-3.40
2009,03,08,04,54,-3.40
2009,03,08,04,55,-3.40
2009,03,08,04,56,-3.40
2009,03,08,04,57,-3.40
2009,03,08,04,58,-3.40
2009,03,08,04,59,-3.40
2009,03,08,05,00,-3.40
2009,03,08,05,01,-3.40
2009,03,08,05,02,-3.40
2009,03,08,05,03,-3.40
2009,03,08,05,04,-3.40
2009,03,08,05,05,-3.40
2009,03,08,05,06,-3.40
2009,03,08,05,07,-3.40
2009,03,08,05,08,-3.40
2009,03,08,05,09,-3.40
2009,03,08,05,10,-3.40
2009,03,08,05,11,-3.40
2009,03,08,05,12,-3.40
2009,03,08,05,13,-3.40
2009,03,08,05,14,-3.40
2009,03,08,05,15,-3.40
2009,03,08,05,16,-3.40
2009,03,08,05,17,-3.40
2009,03,08,05,18,-3.40
2009,03,08,05,19,-3.40
2009,03,08,05,20,-3.40
2009,03,08,05,21,-3.40
2009,03,08,05,22,-3.40
2009,03,08,05,23,-3.40
2009,03,08,05,24,-3.40
2009,03,08,05,25,-3.40
2009,03,08,05,26,-3.40
2009,03,08,05,27,-3.50
2009,03,08,05,28,-3.50
2009,03,08,05,29,-3.50
2009,03,08,05,30,-3.50
2009,03,08,05,31,-3.50
2009,03,08,05,32,-3.60
2009,03,08,05,33,-3.60
2009,03,08,05,34,-3.60
2009,03,08,05,35,-3.60
2009,03,08,05,36,-3.60
2009,03,08,05,37,-3.60
2009,03,08,05,38,-3.60
2009,03,08,05,39,-3.70
2009,03,08,05,40,-3.70
2009,03,08,05,41,-3.70
2009,03,08,05,42,-3.70
2009,03,08,05,43,-3.80
2009,03,08,05,44,-3.80
2009,03,08,05,45,-3.80
2009,03,08,05,46,-3.80
2009,03,08,05,47,-3.90
2009,03,08,05,48,-3.90
2009,03,08,05,49,-3.90
2009,03,08,05,50,-4.00
2009,03,08,05,51,-4.00
2009,03,08,05,52,-4.00
2009,03,08,05,53,-4.00
2009,03,08,05,54,-4.00
2009,03,08,05,55,-4.00
2009,03,08,05,56,-4.00
2009,03,08,05,57,-4.00
2009,03,08,05,58,-4.10
2009,03,08,05,59,-4.10
2009,03,08,06,00,-4.10
2009,03,08,06,01,-4.10
2009,03,08,06,02,-4.10
2009,03,08,06,03,-4.10
2009,03,08,06,04,-4.10
2009,03,08,06,05,-4.10
2009,03,08,06,06,-4.10
2009,03,08,06,07,-4.10
2009,03,08,06,08,-4.10
2009,03,08,06,09,-4.10
2009,03,08,06,10,-4.10
2009,03,08,06,11,-4.00
2009,03,08,06,12,-4.00
2009,03,08,06,13,-4.00
2009,03,08,06,14,-4.00
2009,03,08,06,15,-4.00
2009,03,08,06,16,-4.00
2009,03,08,06,17,-4.00
2009,03,08,06,18,-4.00
2009,03,08,06,19,-4.00
2009,03,08,06,20,-4.10
2009,03,08,06,21,-4.10
2009,03,08,06,22,-4.10
2009,03,08,06,23,-4.10
2009,03,08,06,24,-4.20
2009,03,08,06,25,-4.20
2009,03,08,06,26,-4.20
2009,03,08,06,27,-4.20
2009,03,08,06,28,-4.30
2009,03,08,06,29,-4.30
2009,03,08,06,30,-4.30
2009,03,08,06,31,-4.30
2009,03,08,06,32,-4.30
2009,03,08,06,33,-4.30
2009,03,08,06,34,-4.30
2009,03,08,06,35,-4.30
2009,03,08,06,36,-4.30
2009,03,08,06,37,-4.30
2009,03,08,06,38,-4.30
2009,03,08,06,39,-4.30
2009,03,08,06,40,-4.20
2009,03,08,06,41,-4.20
2009,03,08,06,42,-4.20
2009,03,08,06,43,-4.20
2009,03,08,06,44,-4.20
2009,03,08,06,45,-4.20
2009,03,08,06,46,-4.20
2009,03,08,06,47,-4.20
2009,03,08,06,48,-4.20
2009,03,08,06,49,-4.20
2009,03,08,06,50,-4.20
2009,03,08,06,51,-4.20
2009,03,08,06,52,-4.20
2009,03,08,06,53,-4.20
2009,03,08,06,54,-4.20
2009,03,08,06,55,-4.20
2009,03,08,06,56,-4.30
2009,03,08,06,57,-4.30
2009,03,08,06,58,-4.30
2009,03,08,06,59,-4.30
2009,03,08,07,00,-4.30
2009,03,08,07,01,-4.30
2009,03,08,07,02,-4.30
2009,03,08,07,03,-4.30
2009,03,08,07,04,-4.30
2009,03,08,07,05,-4.30
2009,03,08,07,06,-4.30
2009,03,08,07,07,-4.30
2009,03,08,07,08,-4.30
2009,03,08,07,09,-4.30
2009,03,08,07,10,-4.30
2009,03,08,07,11,-4.30
2009,03,08,07,12,-4.30
2009,03,08,07,13,-4.30
2009,03,08,07,14,-4.30
2009,03,08,07,15,-4.30
2009,03,08,07,16,-4.30
2009,03,08,07,17,-4.30
2009,03,08,07,18,-4.30
2009,03,08,07,19,-4.30
2009,03,08,07,20,-4.40
2009,03,08,07,21,-4.40
2009,03,08,07,22,-4.40
2009,03,08,07,23,-4.40
2009,03,08,07,24,-4.40
2009,03,08,07,25,-4.40
2009,03,08,07,26,-4.40
2009,03,08,07,27,-4.40
2009,03,08,07,28,-4.40
2009,03,08,07,29,-4.40
2009,03,08,07,30,-4.40
2009,03,08,07,31,-4.40
2009,03,08,07,32,-4.40
2009,03,08,07,33,-4.40
2009,03,08,07,34,-4.40
2009,03,08,07,35,-4.40
2009,03,08,07,36,-4.40
2009,03,08,07,37,-4.40
2009,03,08,07,38,-4.40
2009,03,08,07,39,-4.40
2009,03,08,07,40,-4.50
2009,03,08,07,41,-4.50
2009,03,08,07,42,-4.50
2009,03,08,07,43,-4.40
2009,03,08,07,44,-4.40
2009,03,08,07,45,-4.40
2009,03,08,07,46,-4.40
2009,03,08,07,47,-4.40
2009,03,08,07,48,-4.40
2009,03,08,07,49,-4.40
2009,03,08,07,50,-4.40
2009,03,08,07,51,-4.40
2009,03,08,07,52,-4.40
2009,03,08,07,53,-4.40
2009,03,08,07,54,-4.40
2009,03,08,07,55,-4.40
2009,03,08,07,56,-4.50
2009,03,08,07,57,-4.50
2009,03,08,07,58,-4.50
2009,03,08,07,59,-4.50
2009,03,08,08,00,-4.50
2009,03,08,08,01,-4.60
2009,03,08,08,02,-4.60
2009,03,08,08,03,-4.60
2009,03,08,08,04,-4.60
2009,03,08,08,05,-4.60
2009,03,08,08,06,-4.60
2009,03,08,08,07,-4.60
2009,03,08,08,08,-4.60
2009,03,08,08,09,-4.60
2009,03,08,08,10,-4.60
2009,03,08,08,11,-4.60
2009,03,08,08,12,-4.60
2009,03,08,08,13,-4.60
2009,03,08,08,14,-4.60
2009,03,08,08,15,-4.50
2009,03,08,08,16,-4.50
2009,03,08,08,17,-4.50
2009,03,08,08,18,-4.50
2009,03,08,08,19,-4.40
2009,03,08,08,20,-4.40
2009,03,08,08,21,-4.40
2009,03,08,08,22,-4.40
2009,03,08,08,23,-4.40
2009,03,08,08,24,-4.40
2009,03,08,08,25,-4.30
2009,03,08,08,26,-4.30
2009,03,08,08,27,-4.30
2009,03,08,08,28,-4.30
2009,03,08,08,29,-4.30
2009,03,08,08,30,-4.30
2009,03,08,08,31,-4.30
2009,03,08,08,32,-4.30
2009,03,08,08,33,-4.20
2009,03,08,08,34,-4.20
2009,03,08,08,35,-4.20
2009,03,08,08,36,-4.10
2009,03,08,08,37,-4.10
2009,03,08,08,38,-4.10
2009,03,08,08,39,-4.00
2009,03,08,08,40,-4.00
2009,03,08,08,41,-4.00
2009,03,08,08,42,-4.00
2009,03,08,08,43,-3.90
2009,03,08,08,44,-3.90
2009,03,08,08,45,-3.90
2009,03,08,08,46,-3.90
2009,03,08,08,47,-3.80
2009,03,08,08,48,-3.80
2009,03,08,08,49,-3.70
2009,03,08,08,50,-3.70
2009,03,08,08,51,-3.70
2009,03,08,08,52,-3.70
2009,03,08,08,53,-3.60
2009,03,08,08,54,-3.60
2009,03,08,08,55,-3.60
2009,03,08,08,56,-3.60
2009,03,08,08,57,-3.50
2009,03,08,08,58,-3.50
2009,03,08,08,59,-3.50
2009,03,08,09,00,-3.40
2009,03,08,09,01,-3.40
2009,03,08,09,02,-3.40
2009,03,08,09,03,-3.40
2009,03,08,09,04,-3.30
2009,03,08,09,05,-3.30
2009,03,08,09,06,-3.30
2009,03,08,09,07,-3.20
2009,03,08,09,08,-3.20
2009,03,08,09,09,-3.20
2009,03,08,09,10,-3.20
2009,03,08,09,11,-3.20
2009,03,08,09,12,-3.10
2009,03,08,09,13,-3.10
2009,03,08,09,14,-3.10
2009,03,08,09,15,-3.00
2009,03,08,09,16,-3.00
2009,03,08,09,17,-2.90
2009,03,08,09,18,-2.90
2009,03,08,09,19,-2.80
2009,03,08,09,20,-2.80
2009,03,08,09,21,-2.70
2009,03,08,09,22,-2.70
2009,03,08,09,23,-2.60
2009,03,08,09,24,-2.60
2009,03,08,09,25,-2.50
2009,03,08,09,26,-2.50
2009,03,08,09,27,-2.40
2009,03,08,09,28,-2.40
2009,03,08,09,29,-2.40
2009,03,08,09,30,-2.40
2009,03,08,09,31,-2.30
2009,03,08,09,32,-2.30
2009,03,08,09,33,-2.30
2009,03,08,09,34,-2.20
2009,03,08,09,35,-2.20
2009,03,08,09,36,-2.10
2009,03,08,09,37,-2.10
2009,03,08,09,38,-2.10
2009,03,08,09,39,-2.00
2009,03,08,09,40,-1.90
2009,03,08,09,41,-1.80
2009,03,08,09,42,-1.80
2009,03,08,09,43,-1.80
2009,03,08,09,44,-1.70
2009,03,08,09,45,-1.70
2009,03,08,09,46,-1.70
2009,03,08,09,47,-1.60
2009,03,08,09,48,-1.50
2009,03,08,09,49,-1.50
2009,03,08,09,50,-1.40
2009,03,08,09,51,-1.30
2009,03,08,09,52,-1.20
2009,03,08,09,53,-1.10
2009,03,08,09,54,-1.00
2009,03,08,09,55,-0.90
2009,03,08,09,56,-0.90
2009,03,08,09,57,-0.80
2009,03,08,09,58,-0.70
2009,03,08,09,59,-0.60
2009,03,08,10,00,-0.60
2009,03,08,10,01,-0.40
2009,03,08,10,02,-0.30
2009,03,08,10,03,-0.20
2009,03,08,10,04,0.00
2009,03,08,10,05,0.10
2009,03,08,10,06,0.20
2009,03,08,10,07,0.30
2009,03,08,10,08,0.40
2009,03,08,10,09,0.50
2009,03,08,10,10,0.60
2009,03,08,10,11,0.70
2009,03,08,10,12,0.80
2009,03,08,10,13,1.00
2009,03,08,10,14,1.10
2009,03,08,10,15,1.20
2009,03,08,10,16,1.30
2009,03,08,10,17,1.30
2009,03,08,10,18,1.30
2009,03,08,10,19,1.40
2009,03,08,10,20,1.50
2009,03,08,10,21,1.60
2009,03,08,10,22,1.70
2009,03,08,10,23,1.70
2009,03,08,10,24,1.80
2009,03,08,10,25,1.80
2009,03,08,10,26,1.90
2009,03,08,10,27,2.00
2009,03,08,10,28,2.10
2009,03,08,10,29,2.10
2009,03,08,10,30,2.20
2009,03,08,10,31,2.20
2009,03,08,10,32,2.30
2009,03,08,10,33,2.30
2009,03,08,10,34,2.40
2009,03,08,10,35,2.40
2009,03,08,10,36,2.40
2009,03,08,10,37,2.50
2009,03,08,10,38,2.50
2009,03,08,10,39,2.50
2009,03,08,10,40,2.50
2009,03,08,10,41,2.60
2009,03,08,10,42,2.60
2009,03,08,10,43,2.60
2009,03,08,10,44,2.60
2009,03,08,10,45,2.60
2009,03,08,10,46,2.60
2009,03,08,10,47,2.60
2009,03,08,10,48,2.60
2009,03,08,10,49,2.60
2009,03,08,10,50,2.60
2009,03,08,10,51,2.60
2009,03,08,10,52,2.60
2009,03,08,10,53,2.60
2009,03,08,10,54,2.70
2009,03,08,10,55,2.70
2009,03,08,10,56,2.70
2009,03,08,10,57,2.80
2009,03,08,10,58,2.80
2009,03,08,10,59,2.80
2009,03,08,11,00,2.90
2009,03,08,11,01,3.00
2009,03,08,11,02,3.10
2009,03,08,11,03,3.10
2009,03,08,11,04,3.20
2009,03,08,11,05,3.30
2009,03,08,11,06,3.30
2009,03,08,11,07,3.40
2009,03,08,11,08,3.40
2009,03,08,11,09,3.50
2009,03,08,11,10,3.50
2009,03,08,11,11,3.50
2009,03,08,11,12,3.50
2009,03,08,11,13,3.60
2009,03,08,11,14,3.60
2009,03,08,11,15,3.60
2009,03,08,11,16,3.60
2009,03,08,11,17,3.70
2009,03,08,11,18,3.70
2009,03,08,11,19,3.70
2009,03,08,11,20,3.70
2009,03,08,11,21,3.60
2009,03,08,11,22,3.60
2009,03,08,11,23,3.70
2009,03,08,11,24,3.70
2009,03,08,11,25,3.70
2009,03,08,11,26,3.70
2009,03,08,11,27,3.80
2009,03,08,11,28,3.80
2009,03,08,11,29,3.80
2009,03,08,11,30,3.80
2009,03,08,11,31,3.80
2009,03,08,11,32,3.80
2009,03,08,11,33,3.80
2009,03,08,11,34,3.80
2009,03,08,11,35,3.80
2009,03,08,11,36,3.80
2009,03,08,11,37,3.80
2009,03,08,11,38,3.80
2009,03,08,11,39,3.90
2009,03,08,11,40,3.90
2009,03,08,11,41,3.90
2009,03,08,11,42,3.90
2009,03,08,11,43,4.00
2009,03,08,11,44,4.00
2009,03,08,11,45,4.00
2009,03,08,11,46,4.10
2009,03,08,11,47,4.10
2009,03,08,11,48,4.20
2009,03,08,11,49,4.20
2009,03,08,11,50,4.30
2009,03,08,11,51,4.30
2009,03,08,11,52,4.30
2009,03,08,11,53,4.30
2009,03,08,11,54,4.20
2009,03,08,11,55,4.20
2009,03,08,11,56,4.20
2009,03,08,11,57,4.10
2009,03,08,11,58,4.10
2009,03,08,11,59,4.00
2009,03,08,12,00,3.90
2009,03,08,12,01,3.80
2009,03,08,12,02,3.80
2009,03,08,12,03,3.70
2009,03,08,12,04,3.70
2009,03,08,12,05,3.70
2009,03,08,12,06,3.70
2009,03,08,12,07,3.70
2009,03,08,12,08,3.60
2009,03,08,12,09,3.60
2009,03,08,12,10,3.60
2009,03,08,12,11,3.60
2009,03,08,12,12,3.60
2009,03,08,12,13,3.60
2009,03,08,12,14,3.70
2009,03,08,12,15,3.70
2009,03,08,12,16,3.60
2009,03,08,12,17,3.60
2009,03,08,12,18,3.60
2009,03,08,12,19,3.60
2009,03,08,12,20,3.60
2009,03,08,12,21,3.60
2009,03,08,12,22,3.60
2009,03,08,12,23,3.60
2009,03,08,12,24,3.60
2009,03,08,12,25,3.60
2009,03,08,12,26,3.60
2009,03,08,12,27,3.70
2009,03,08,12,28,3.70
2009,03,08,12,29,3.80
2009,03,08,12,30,3.80
2009,03,08,12,31,3.80
2009,03,08,12,32,3.80
2009,03,08,12,33,3.80
2009,03,08,12,34,3.80
2009,03,08,12,35,3.90
2009,03,08,12,36,3.90
2009,03,08,12,37,3.90
2009,03,08,12,38,3.90
2009,03,08,12,39,3.90
2009,03,08,12,40,3.90
2009,03,08,12,41,3.90
2009,03,08,12,42,4.00
2009,03,08,12,43,4.00
2009,03,08,12,44,4.10
2009,03,08,12,45,4.10
2009,03,08,12,46,4.20
2009,03,08,12,47,4.20
2009,03,08,12,48,4.30
2009,03,08,12,49,4.30
2009,03,08,12,50,4.40
2009,03,08,12,51,4.40
2009,03,08,12,52,4.50
2009,03,08,12,53,4.50
2009,03,08,12,54,4.40
2009,03,08,12,55,4.40
2009,03,08,12,56,4.40
2009,03,08,12,57,4.30
2009,03,08,12,58,4.30
2009,03,08,12,59,4.30
2009,03,08,13,00,4.30
2009,03,08,13,01,4.40
2009,03,08,13,02,4.40
2009,03,08,13,03,4.40
2009,03,08,13,04,4.50
2009,03,08,13,05,4.50
2009,03,08,13,06,4.50
2009,03,08,13,07,4.60
2009,03,08,13,08,4.60
2009,03,08,13,09,4.60
2009,03,08,13,10,4.50
2009,03,08,13,11,4.50
2009,03,08,13,12,4.50
2009,03,08,13,13,4.60
2009,03,08,13,14,4.70
2009,03,08,13,15,4.80
2009,03,08,13,16,4.80
2009,03,08,13,17,4.90
2009,03,08,13,18,5.00
2009,03,08,13,19,5.00
2009,03,08,13,20,5.10
2009,03,08,13,21,5.10
2009,03,08,13,22,5.10
2009,03,08,13,23,5.20
2009,03,08,13,24,5.20
2009,03,08,13,25,5.20
2009,03,08,13,26,5.30
2009,03,08,13,27,5.30
2009,03,08,13,28,5.40
2009,03,08,13,29,5.40
2009,03,08,13,30,5.50
2009,03,08,13,31,5.50
2009,03,08,13,32,5.50
2009,03,08,13,33,5.50
2009,03,08,13,34,5.50
2009,03,08,13,35,5.50
2009,03,08,13,36,5.40
2009,03,08,13,37,5.30
2009,03,08,13,38,5.20
2009,03,08,13,39,5.10
2009,03,08,13,40,5.00
2009,03,08,13,41,5.00
2009,03,08,13,42,4.90
2009,03,08,13,43,4.80
2009,03,08,13,44,4.70
2009,03,08,13,45,4.60
2009,03,08,13,46,4.50
2009,03,08,13,47,4.50
2009,03,08,13,48,4.40
2009,03,08,13,49,4.40
2009,03,08,13,50,4.40
2009,03,08,13,51,4.30
2009,03,08,13,52,4.30
2009,03,08,13,53,4.30
2009,03,08,13,54,4.40
2009,03,08,13,55,4.40
2009,03,08,13,56,4.50
2009,03,08,13,57,4.50
2009,03,08,13,58,4.50
2009,03,08,13,59,4.50
2009,03,08,14,00,4.40
2009,03,08,14,01,4.40
2009,03,08,14,02,4.50
2009,03,08,14,03,4.50
2009,03,08,14,04,4.60
2009,03,08,14,05,4.50
2009,03,08,14,06,4.50
2009,03,08,14,07,4.40
2009,03,08,14,08,4.40
2009,03,08,14,09,4.40
2009,03,08,14,10,4.30
2009,03,08,14,11,4.30
2009,03,08,14,12,4.30
2009,03,08,14,13,4.30
2009,03,08,14,14,4.30
2009,03,08,14,15,4.30
2009,03,08,14,16,4.30
2009,03,08,14,17,4.30
2009,03,08,14,18,4.20
2009,03,08,14,19,4.20
2009,03,08,14,20,4.10
2009,03,08,14,21,4.10
2009,03,08,14,22,4.10
2009,03,08,14,23,4.10
2009,03,08,14,24,4.10
2009,03,08,14,25,4.10
2009,03,08,14,26,4.00
2009,03,08,14,27,4.00
2009,03,08,14,28,4.00
2009,03,08,14,29,4.00
2009,03,08,14,30,4.00
2009,03,08,14,31,4.00
2009,03,08,14,32,4.10
2009,03,08,14,33,4.10
2009,03,08,14,34,4.00
2009,03,08,14,35,4.00
2009,03,08,14,36,4.00
2009,03,08,14,37,4.10
2009,03,08,14,38,4.10
2009,03,08,14,39,4.20
2009,03,08,14,40,4.20
2009,03,08,14,41,4.30
2009,03,08,14,42,4.30
2009,03,08,14,43,4.30
2009,03,08,14,44,4.30
2009,03,08,14,45,4.40
2009,03,08,14,46,4.40
2009,03,08,14,47,4.40
2009,03,08,14,48,4.50
2009,03,08,14,49,4.60
2009,03,08,14,50,4.60
2009,03,08,14,51,4.70
2009,03,08,14,52,4.70
2009,03,08,14,53,4.80
2009,03,08,14,54,4.80
2009,03,08,14,55,4.80
2009,03,08,14,56,4.80
2009,03,08,14,57,4.80
2009,03,08,14,58,4.80
2009,03,08,14,59,4.70
2009,03,08,15,00,4.60
2009,03,08,15,01,4.50
2009,03,08,15,02,4.40
2009,03,08,15,03,4.30
2009,03,08,15,04,4.30
2009,03,08,15,05,4.40
2009,03,08,15,06,4.40
2009,03,08,15,07,4.40
2009,03,08,15,08,4.40
2009,03,08,15,09,4.40
2009,03,08,15,10,4.40
2009,03,08,15,11,4.40
2009,03,08,15,12,4.40
2009,03,08,15,13,4.30
2009,03,08,15,14,4.30
2009,03,08,15,15,4.30
2009,03,08,15,16,4.30
2009,03,08,15,17,4.30
2009,03,08,15,18,4.40
2009,03,08,15,19,4.40
2009,03,08,15,20,4.40
2009,03,08,15,21,4.40
2009,03,08,15,22,4.40
2009,03,08,15,23,4.40
2009,03,08,15,24,4.40
2009,03,08,15,25,4.40
2009,03,08,15,26,4.40
2009,03,08,15,27,4.40
2009,03,08,15,28,4.40
2009,03,08,15,29,4.40
2009,03,08,15,30,4.50
2009,03,08,15,31,4.50
2009,03,08,15,32,4.40
2009,03,08,15,33,4.30
2009,03,08,15,34,4.20
2009,03,08,15,35,4.30
2009,03,08,15,36,4.30
2009,03,08,15,37,4.40
2009,03,08,15,38,4.50
2009,03,08,15,39,4.50
2009,03,08,15,40,4.50
2009,03,08,15,41,4.30
2009,03,08,15,42,4.20
2009,03,08,15,43,4.20
2009,03,08,15,44,4.10
2009,03,08,15,45,4.10
2009,03,08,15,46,4.10
2009,03,08,15,47,4.20
2009,03,08,15,48,4.10
2009,03,08,15,49,4.10
2009,03,08,15,50,4.00
2009,03,08,15,51,3.90
2009,03,08,15,52,3.90
2009,03,08,15,53,3.90
2009,03,08,15,54,3.90
2009,03,08,15,55,3.80
2009,03,08,15,56,3.80
2009,03,08,15,57,3.90
2009,03,08,15,58,4.00
2009,03,08,15,59,4.00
2009,03,08,16,00,4.10
2009,03,08,16,01,4.10
2009,03,08,16,02,4.20
2009,03,08,16,03,4.20
2009,03,08,16,04,4.30
2009,03,08,16,05,4.30
2009,03,08,16,06,4.30
2009,03,08,16,07,4.30
2009,03,08,16,08,4.30
2009,03,08,16,09,4.30
2009,03,08,16,10,4.20
2009,03,08,16,11,4.20
2009,03,08,16,12,4.10
2009,03,08,16,13,4.00
2009,03,08,16,14,4.00
2009,03,08,16,15,3.90
2009,03,08,16,16,3.90
2009,03,08,16,17,3.90
2009,03,08,16,18,3.80
2009,03,08,16,19,3.80
2009,03,08,16,20,3.80
2009,03,08,16,21,3.80
2009,03,08,16,22,3.80
2009,03,08,16,23,3.90
2009,03,08,16,24,3.90
2009,03,08,16,25,3.90
2009,03,08,16,26,4.00
2009,03,08,16,27,4.10
2009,03,08,16,28,4.20
2009,03,08,16,29,4.30
2009,03,08,16,30,4.40
2009,03,08,16,31,4.50
2009,03,08,16,32,4.60
2009,03,08,16,33,4.70
2009,03,08,16,34,4.80
2009,03,08,16,35,4.80
2009,03,08,16,36,4.80
2009,03,08,16,37,4.80
2009,03,08,16,38,4.80
2009,03,08,16,39,4.80
2009,03,08,16,40,4.80
2009,03,08,16,41,4.80
2009,03,08,16,42,4.80
2009,03,08,16,43,4.80
2009,03,08,16,44,4.70
2009,03,08,16,45,4.70
2009,03,08,16,46,4.60
2009,03,08,16,47,4.60
2009,03,08,16,48,4.50
2009,03,08,16,49,4.40
2009,03,08,16,50,4.40
2009,03,08,16,51,4.30
2009,03,08,16,52,4.30
2009,03,08,16,53,4.30
2009,03,08,16,54,4.20
2009,03,08,16,55,4.20
2009,03,08,16,56,4.20
2009,03,08,16,57,4.20
2009,03,08,16,58,4.20
2009,03,08,16,59,4.20
2009,03,08,17,00,4.10
2009,03,08,17,01,4.10
2009,03,08,17,02,4.10
2009,03,08,17,03,4.10
2009,03,08,17,04,4.00
2009,03,08,17,05,4.00
2009,03,08,17,06,3.90
2009,03,08,17,07,3.90
2009,03,08,17,08,3.90
2009,03,08,17,09,3.90
2009,03,08,17,10,3.90
2009,03,08,17,11,3.90
2009,03,08,17,12,3.90
2009,03,08,17,13,3.80
2009,03,08,17,14,3.80
2009,03,08,17,15,3.80
2009,03,08,17,16,3.80
2009,03,08,17,17,3.80
2009,03,08,17,18,3.80
2009,03,08,17,19,3.70
2009,03,08,17,20,3.70
2009,03,08,17,21,3.70
2009,03,08,17,22,3.70
2009,03,08,17,23,3.70
2009,03,08,17,24,3.70
2009,03,08,17,25,3.70
2009,03,08,17,26,3.70
2009,03,08,17,27,3.70
2009,03,08,17,28,3.70
2009,03,08,17,29,3.70
2009,03,08,17,30,3.70
2009,03,08,17,31,3.70
2009,03,08,17,32,3.70
2009,03,08,17,33,3.70
2009,03,08,17,34,3.80
2009,03,08,17,35,3.80
2009,03,08,17,36,3.80
2009,03,08,17,37,3.80
2009,03,08,17,38,3.80
2009,03,08,17,39,3.80
2009,03,08,17,40,3.80
2009,03,08,17,41,3.80
2009,03,08,17,42,3.80
2009,03,08,17,43,3.80
2009,03,08,17,44,3.80
2009,03,08,17,45,3.70
2009,03,08,17,46,3.70
2009,03,08,17,47,3.70
2009,03,08,17,48,3.70
2009,03,08,17,49,3.70
2009,03,08,17,50,3.70
2009,03,08,17,51,3.70
2009,03,08,17,52,3.70
2009,03,08,17,53,3.70
2009,03,08,17,54,3.70
2009,03,08,17,55,3.70
2009,03,08,17,56,3.60
2009,03,08,17,57,3.60
2009,03,08,17,58,3.60
2009,03,08,17,59,3.60
2009,03,08,18,00,3.60
2009,03,08,18,01,3.50
2009,03,08,18,02,3.50
2009,03,08,18,03,3.50
2009,03,08,18,04,3.40
2009,03,08,18,05,3.40
2009,03,08,18,06,3.40
2009,03,08,18,07,3.40
2009,03,08,18,08,3.30
2009,03,08,18,09,3.30
2009,03,08,18,10,3.30
2009,03,08,18,11,3.30
2009,03,08,18,12,3.30
2009,03,08,18,13,3.20
2009,03,08,18,14,3.20
2009,03,08,18,15,3.20
2009,03,08,18,16,3.20
2009,03,08,18,17,3.20
2009,03,08,18,18,3.20
2009,03,08,18,19,3.10
2009,03,08,18,20,3.10
2009,03,08,18,21,3.10
2009,03,08,18,22,3.10
2009,03,08,18,23,3.00
2009,03,08,18,24,3.00
2009,03,08,18,25,3.00
2009,03,08,18,26,2.90
2009,03,08,18,27,2.90
2009,03,08,18,28,2.90
2009,03,08,18,29,2.90
2009,03,08,18,30,2.90
2009,03,08,18,31,2.80
2009,03,08,18,32,2.80
2009,03,08,18,33,2.80
2009,03,08,18,34,2.80
2009,03,08,18,35,2.80
2009,03,08,18,36,2.80
2009,03,08,18,37,2.80
2009,03,08,18,38,2.80
2009,03,08,18,39,2.70
2009,03,08,18,40,2.70
2009,03,08,18,41,2.70
2009,03,08,18,42,2.70
2009,03,08,18,43,2.70
2009,03,08,18,44,2.70
2009,03,08,18,45,2.60
2009,03,08,18,46,2.60
2009,03,08,18,47,2.60
2009,03,08,18,48,2.60
2009,03,08,18,49,2.60
2009,03,08,18,50,2.50
2009,03,08,18,51,2.50
2009,03,08,18,52,2.50
2009,03,08,18,53,2.50
2009,03,08,18,54,2.50
2009,03,08,18,55,2.40
2009,03,08,18,56,2.40
2009,03,08,18,57,2.40
2009,03,08,18,58,2.40
2009,03,08,18,59,2.30
2009,03,08,19,00,2.30
2009,03,08,19,01,2.30
2009,03,08,19,02,2.30
2009,03,08,19,03,2.30
2009,03,08,19,04,2.30
2009,03,08,19,05,2.30
2009,03,08,19,06,2.30
2009,03,08,19,07,2.30
2009,03,08,19,08,2.30
2009,03,08,19,09,2.30
2009,03,08,19,10,2.30
2009,03,08,19,11,2.30
2009,03,08,19,12,2.30
2009,03,08,19,13,2.30
2009,03,08,19,14,2.30
2009,03,08,19,15,2.30
2009,03,08,19,16,2.30
2009,03,08,19,17,2.30
2009,03,08,19,18,2.20
2009,03,08,19,19,2.20
2009,03,08,19,20,2.20
2009,03,08,19,21,2.20
2009,03,08,19,22,2.20
2009,03,08,19,23,2.20
2009,03,08,19,24,2.20
2009,03,08,19,25,2.20
2009,03,08,19,26,2.20
2009,03,08,19,27,2.20
2009,03,08,19,28,2.20
2009,03,08,19,29,2.20
2009,03,08,19,30,2.20
2009,03,08,19,31,2.10
2009,03,08,19,32,2.10
2009,03,08,19,33,2.10